Location: Conjunto Santa Maria
(19.9513°S, 43.9599°W)
Time: 08:33:25
(UTC+00:00)

Daily predictions for brighter satellites

Satellite Brightness Start Highest point End
(mag) Time Altitude Azimuth Time Altitude Azimuth Time Altitude Azimuth
Cosmos 1346 Rocket 3.4 21:55:05 10° SSW 21:59:02 63° W 22:02:55 10° N
Aurora 2 Rocket 4.1 21:54:00 10° WSW 22:01:52 56° S 22:07:19 10° ESE
Cosmos 1603 4.0 21:56:56 10° NNW 22:02:40 77° WSW 22:08:26 10° SSE
Cosmos 1825 Rocket 4.1 21:58:22 10° SSW 22:02:41 65° W 22:06:57 10° N
ARGOS 4.0 21:59:17 10° SE 22:03:53 28° E 22:08:25 10° NNE
Lacrosse 5 rocket 2.5 22:00:51 10° S 22:05:00 34° SE 22:09:11 10° ENE
ATLAS 3B R/B 2.9 21:57:56 10° NNW 22:05:17 68° ENE 22:12:44 10° SSE
GPS 2-04 Rocket1 2.3 22:02:04 10° WSW 22:05:28 75° NNW 22:08:50 10° NE
HJ-1C 4.3 22:04:10 10° SE 22:07:01 26° E 22:09:51 10° NNE
Aureole 3 3.0 22:07:50 10° N 22:11:05 86° E 22:15:03 10° S
Cosmos 1455 2.3 22:08:26 10° N 22:12:17 84° W 22:16:13 10° S
IRS-1C Rocket 4.2 22:08:05 10° SSE 22:13:25 87° WSW 22:18:40 10° NNW
Cosmos 2058 3.7 22:16:36 10° SSE 22:20:24 32° E 22:24:09 10° NNE
Intelsat 5-3 Rocket 4.3 22:07:30 10° W 22:22:46 80° SSW 22:28:08 10° ESE
Cosmos 1953 Rocket 4.4 22:20:06 10° SSW 22:24:31 56° W 22:28:51 10° N
Meteor 2-1 Rocket 4.3 22:19:15 10° N 22:24:45 80° W 22:30:24 10° S
CZ-4 R/B 2.1 22:22:46 10° S 22:26:59 62° WSW 22:31:07 10° NNW
Cosmos-2242 4.1 22:24:45 10° NE 22:28:18 25° E 22:31:54 10° SE
Aureole 3 Rocket 4.0 22:23:37 10° NNE 22:28:31 54° E 22:35:26 10° SSE
H-2A R/B 1.9 22:23:55 10° SSE 22:28:53 86° ENE 22:33:47 10° NNW
Meteor 2-21 4.4 22:22:52 10° S 22:28:57 71° E 22:34:57 10° NNE
ARIANE 5 R/B 4.3 22:27:31 10° NNW 22:30:32 19° NNE 22:34:33 15° ENE
Cosmos 2084 Rocket 4.3 22:27:35 10° S 22:31:20 32° ESE 22:33:39 18° ENE
ATLAS 2AS CENTAUR RB 4.2 22:26:24 10° NW 22:31:47 39° NNE 23:01:59 10° E
Cosmos 1825 2.9 22:29:49 10° SSE 22:33:18 34° E 22:35:33 18° NE
SJ-11-01 4.3 22:28:46 10° S 22:33:33 88° WSW 22:38:17 10° NNW
CZ-2C R/B 4.5 22:29:08 10° S 22:33:37 39° WSW 22:38:13 10° NW
Cosmos 405 4.0 22:33:11 18° NE 22:34:52 26° E 22:37:51 10° SE
Cosmos 1408 2.5 22:32:03 10° S 22:35:45 75° E 22:39:22 10° N
Cosmos 1812 Rocket 3.4 22:34:53 10° N 22:39:12 84° E 22:43:35 10° S
GPS 2-17 Rocket1 3.1 22:35:02 10° W 22:39:40 68° N 22:42:26 22° ENE
NOSS 3-3 (A) 3.9 22:35:52 10° SSW 22:41:37 54° ESE 22:45:16 20° NE
NOSS 3-3 (C) 3.9 22:35:58 10° SSW 22:41:44 53° ESE 22:45:22 20° NE
Meteor 2-14 Rocket 4.4 22:37:28 10° S 22:43:36 87° W 22:49:39 10° N
Cosmos 1076 Rocket 4.1 22:40:30 10° SSE 22:44:36 38° E 22:46:40 23° NE
Cosmos 1441 Rocket 3.1 22:42:04 10° S 22:45:51 73° E 22:48:44 17° NNE
Cosmos 1184 Rocket 3.4 22:43:20 10° SSE 22:46:21 35° E 22:46:55 32° ENE
Cosmos 489 Rocket 4.4 22:41:12 10° N 22:47:23 64° ENE 22:53:33 10° SSE
Meteor 2-21 Rocket 4.3 22:43:08 10° S 22:49:14 80° E 22:55:16 10° N
Cosmos 2369 Rocket 2.4 22:48:18 10° S 22:53:53 52° ESE 22:56:54 26° NE
GPS 2-18 Rocket1 3.1 22:51:22 10° W 22:55:16 78° S 22:57:05 31° E
CZ-2C R/B 4.0 22:56:20 10° S 22:56:32 10° SSE 22:56:43 10° SSE
Cosmos 158 Rocket 3.9 22:52:43 10° N 22:58:02 68° ENE 23:03:17 10° SSE
USA 186 1.7 22:55:06 10° SSE 22:58:18 56° E 22:58:47 49° NE
Atlas Centaur 2 2.8 22:58:40 10° SW 23:01:38 23° SSE 23:03:10 18° SE
Cosmos 923 Rocket 3.9 22:56:42 10° N 23:01:54 67° ENE 23:07:07 10° SSE
Cosmos 1943 Rocket 2.5 22:58:22 10° SSW 23:03:49 62° WNW 23:08:19 15° N
SJ-6B 3.6 23:00:52 10° SSE 23:03:28 31° ESE 23:03:28 31° ESE
CSL-04 Rocket 4.0 23:02:05 10° S 23:07:21 65° WSW 23:12:37 10° NNW
Centaur D-1A AC-31 1.3 23:05:35 10° WSW 23:08:34 48° SSE 23:09:41 34° ESE
Cosmos 1680 Rocket 3.5 23:04:31 14° N 23:08:48 55° ENE 23:13:55 10° SSE
SL-08 RB Rocket 4.2 23:06:36 10° S 23:11:14 63° WSW 23:15:47 10° NNW
Nadezhda 2 Rocket 4.4 23:08:50 10° S 23:15:15 72° E 23:18:40 29° NNE
MOS 1-B Rocket 4.5 23:18:00 21° NNE 23:22:59 87° WNW 23:31:13 10° SSW
MetOp-A 4.0 23:20:37 10° SSE 23:26:02 82° ENE 23:29:00 28° N
Cosmos 1244 Rocket 4.4 23:20:10 10° S 23:26:34 82° E 23:29:28 35° N
BREEZE-M DEB (TANK) 4.2 23:30:27 10° WSW 23:33:12 47° NW 23:33:32 45° NNW
H-2A R/B 4.3 23:38:15 41° SSE 23:38:15 41° SSE 23:41:07 10° S
OAO 2 Rocket 3.6 23:35:23 10° SW 23:40:39 60° SSE 23:40:56 59° SE
Lacrosse 5 rocket 3.8 23:40:50 10° WSW 23:43:55 18° WNW 23:45:14 16° NW
CZ-3B R/B 3.3 23:41:30 10° WSW 23:45:37 52° S 23:50:38 26° ESE
Cosmos 2112 Rocket 4.2 23:44:17 33° NNW 23:46:33 67° WSW 23:51:45 10° S
Delta 128 4.2 23:45:34 10° WNW 23:49:07 54° WNW 23:49:07 54° WNW
Ariane Rocket 3.1 23:45:21 10° S 23:50:25 75° WSW 23:50:52 69° WNW
Cosmos 2315 Rocket 4.4 23:51:53 47° SE 23:51:53 47° SE 23:56:47 10° SSE
MOS 1 4.2 23:45:20 10° SSE 23:51:03 85° WSW 23:51:58 64° NNW
Cosmos 1656 Rocket 3.6 23:46:05 10° SSW 23:51:48 80° WNW 23:52:06 77° NNW
